Tracking 19199 objects as of 24-Jun-2018
HD Live streaming from Space Station
objects crossing your sky now

CZ-4B DEB

Track CZ-4B DEB now!
10-day predictions


NORAD ID: 37581
Int'l Code: 1999-025EKE
Perigee: 744.4 km
Apogee: 907.1 km
Inclination: 98.9 °
Period: 101.3 minutes
Semi major axis: 7196 km
RCS: 0.0014 m2 (small)
Launch date: May 10, 1999
Source: People's Republic of China (PRC)
Launch site: Taiyaun Space Center, China (TSC)

Note: This is SATELLITE DEBRIS
aabbcc
Your satellite tracking list
Your tracking list is empty




NASA's NSSDC Master Catalog

Two Line Element Set (TLE):
1 37581U 99025EKE 18174.78786145 +.00000136 +00000-0 +77072-4 0  9993
2 37581 098.8639 166.0333 0113074 358.2000 123.9812 14.22000257828664
Source of the keplerian elements: AFSPC